Wetterverlauf

Letzte Wetterlage 20.04.2014 15:00
Wetterdiagramm
Tabellarische Darstellung
Datum Temperatur Windchill Feuchte Luftdruck Windrichtung Windstärke Niederschlag
20.04.2014 15:00 20 °C 20 °C 45 % 1007,5 hPa 128 1.0 0,00 mm
20.04.2014 14:45 18 °C 18 °C 49 % 1007,5 hPa 121 1.0 0,00 mm
20.04.2014 14:30 19 °C 19 °C 48 % 1007,8 hPa 124 1.0 0,00 mm
20.04.2014 14:10 20 °C 20 °C 50 % 1007,9 hPa 135 1.9 0,00 mm
20.04.2014 14:00 20 °C 20 °C 49 % 1007,7 hPa 123 0.5 0,00 mm
20.04.2014 13:45 21 °C 21 °C 46 % 1007,9 hPa 114 1.5 0,00 mm
20.04.2014 13:30 20 °C 20 °C 48 % 1007,9 hPa 117 1.0 0,00 mm
20.04.2014 13:10 20 °C 20 °C 49 % 1008,1 hPa 135 1.9 0,00 mm
20.04.2014 13:00 20 °C 20 °C 50 % 1008,2 hPa 108 1.0 0,00 mm
20.04.2014 12:45 20 °C 20 °C 51 % 1008,3 hPa 139 0.5 0,00 mm
20.04.2014 12:30 20 °C 20 °C 50 % 1008,3 hPa 120 1.0 0,00 mm
20.04.2014 12:10 20 °C 20 °C 50 % 1008,3 hPa 135 1.9 0,00 mm
20.04.2014 12:00 20 °C 20 °C 53 % 1008,4 hPa 126 1.5 0,00 mm
20.04.2014 11:45 20 °C 20 °C 52 % 1008,5 hPa 126 1.0 0,00 mm
20.04.2014 11:30 19 °C 19 °C 54 % 1008,6 hPa 95 1.5 0,00 mm
20.04.2014 11:10 19 °C 19 °C 57 % 1008,6 hPa 135 1.9 0,00 mm
20.04.2014 11:00 18 °C 18 °C 59 % 1008,7 hPa 124 1.0 0,00 mm
20.04.2014 10:45 17 °C 17 °C 65 % 1008,9 hPa 125 0.5 0,00 mm
20.04.2014 10:30 16 °C 16 °C 64 % 1008,8 hPa 122 1.5 0,00 mm
20.04.2014 10:10 16 °C 16 °C 68 % 1008,9 hPa 135 0.6 0,00 mm
20.04.2014 10:00 16 °C 16 °C 66 % 1008,9 hPa 124 1.0 0,00 mm
20.04.2014 09:45 18 °C 18 °C 65 % 1008,8 hPa 117 0.5 0,00 mm
20.04.2014 09:30 16 °C 16 °C 69 % 1009,0 hPa 117 0.5 0,00 mm
20.04.2014 09:10 17 °C 17 °C 68 % 1008,9 hPa 135 0.6 0,00 mm
20.04.2014 09:00 16 °C 16 °C 72 % 1009,0 hPa 131 0.5 0,00 mm
1
Empfehlen Sie wetter.com
| Mehr
Neue Wetterwarnung

Neue Niederschlagsmeldung
Neue Meldung
Regen Liveticker
    sehr starker Regen/Gewitter
    starker Regen/Gewitter
    mäßiger bis starker Regen
    mäßiger Regen
    leichter bis mäßiger Regen
    kein Regen